USA 253

Last updated on Jan. 22, 2020, 4:36 a.m. UTC

1 40099U 14043A   20022.01527778 -.00000131  00000-0  00000+0 0  9992
2 40099   0.1488  89.3604 0002955 280.8669 194.6941  1.00277670  4610
UTC
Height (km)
Latitude
Longitude
Inclination
Orbital Period
UTC large
Height (km)
Speed (km/s)
/
Latitude / Longitude
Inclination (degrees)
Orbital Period (minutes)
Azimuth
Elevation
Range (km)
Doppler Factor
iOS Compass Heading
iOS Angle

Next 30 passes for location: Hong Kong

Rise time Rise Azimuth (degrees) Set time Set Azimuth (degrees) Duration Max altitude (degrees)

No matching passes for this satellites